AirNav   Air Wisconsin pilot careers
 
 809 users online  

XS77 Seafood Warehouse Park Airport
Crystal Beach, Texas, USA

GOING TO CRYSTAL BEACH?


FAA INFORMATION EFFECTIVE 06 DECEMBER 2018

Location

FAA Identifier: XS77
Lat/Long: 29-27-55.8360N / 094-37-38.6950W
29-27.930600N / 094-37.644917W
29.4655100 / -94.6274153
(estimated)
Elevation: 9 ft. / 3 m (estimated)
Variation: 06E (1985)
From city: 1 mile N of CRYSTAL BEACH, TX
Time zone: UTC -6 (UTC -5 during Daylight Saving Time)
Zip code: 77650

Airport Operations

Airport use: Private use. Permission required prior to landing
Activation date: 06/1991
Control tower: no
ARTCC: HOUSTON CENTER
FSS: MONTGOMERY COUNTY FLIGHT SERVICE STATION
Attendance: UNATNDD
Wind indicator: yes
Segmented circle: no

Airport Communications

WX ASOS at GLS (17 nm SW): 119.275 (409-740-9248)

Nearby radio navigation aids

VOR radial/distance  VOR name  Freq  Var
MHFr121/7.9TRINITY VOR/DME113.6007E
VUHr041/17.2SCHOLES VOR/DME113.0006E
SBIr240/33.5SABINE PASS VOR/DME115.4007E
HUBr104/35.8HOBBY VOR/DME117.1005E

 
NDB name  Hdg/Dist  Freq  Var  ID
GALVESTON032/10.420608EGLS --. .-.. ...

Airport Services

Fuel available: 100LL

Runway Information

Runway 12/30

Dimensions: 2200 x 75 ft. / 671 x 23 m
Surface: turf
RUNWAY 12  RUNWAY 30
Traffic pattern: leftleft

Airport Ownership and Management from official FAA records

Ownership: Privately-owned
Owner: PATRICK A. ROGERS
PO BOX 2160
CRYSTAL BEACH, TX 77650
Phone 409-684-3553
Manager: PATRICK A. ROGERS
PO BOX 2160
CRYSTAL BEACH, TX 77650
Phone 409-684-3553

Airport Operational Statistics

Aircraft based on the field: 6
Single engine airplanes: 4
Multi engine airplanes: 2
    

Instrument Procedures

There are no published instrument procedures at XS77.

Some nearby airports with instrument procedures:

KGLS - Scholes International Airport at Galveston (17 nm SW)
T00 - Chambers County Airport (18 nm N)
54T - RWJ Airpark (21 nm NW)
KHPY - Baytown Airport (26 nm NW)
T41 - La Porte Municipal Airport (26 nm NW)
 
Loc | Ops | Rwys | IFR | FBO | Links
Com | Nav | Svcs | Stats | Notes


 
Area around XS77 (Seafood Warehouse Park Airport)
 
Road maps at: MapQuest Bing Google
 
Aerial photo
No photo
 
Sectional chart

 
Airport distance calculator
Flying to Seafood Warehouse Park Airport? Find the distance to fly.

From to XS77

Sunrise and sunset
Times for 15-Dec-2018
 Local
(UTC-6)
 Zulu
(UTC)
Morning civil twilight06:4012:40
Sunrise07:0713:07
Sunset17:2123:21
Evening civil twilight17:4723:47

Current date and time
Zulu (UTC)  15-Dec-2018 14:34:55
Local (UTC-6)  15-Dec-2018 08:34:55
 
METAR
KGLS 
17nm SW 
151352Z 29008KT 10SM CLR 09/08 A3015 RMK AO2 SLP208 T00940078
KXIH 
18nm S 
151415Z AUTO 31009G17KT 10SM OVC023 12/06 A3014 RMK A01
KEFD 
29nm W 
151350Z 30008KT 10SM CLR 10/08 A3016
KLVJ 
33nm W 
151353Z AUTO 31007KT 10SM CLR 09/03 A3017 RMK AO2 SLP214 T00940033
TAF
KGLS 
17nm SW 
151245Z 1513/1612 29010KT P6SM SCT025 FM151600 31013G21KT P6SM SKC FM160200 31011KT P6SM FEW250
NOTAMs
Click for the latest NOTAMs
NOTAMs are issued by the DoD/FAA and will open in a separate window not controlled by AirNav.

 

 
 

Would you like to see your business listed on this page?

 If your business provides an interesting product or service to pilots, flight crews, aircraft, or users of the Seafood Warehouse Park Airport, you should consider listing it here.  To start the listing process, click on the button below
 
Add a business
 

Other Pages about Seafood Warehouse Park Airport

Update a link
 
Copyright © AirNav, LLC. All rights reserved. Privacy Policy  Contact